Location: Praha
(50.0830°N, 14.4670°E)
Time: 18:52:02
(UTC+02:00)

ISS - Pass Details

Date: 12 July 2021
Orbit: 419 x 421 km, 51.6° (Epoch: 02 August)

Event Time Altitude Azimuth Distance (km) Brightness Sun altitude
Exits shadow 00:32:34 39° 227° (SW) 649 -3.1 -17.5°
Maximum altitude 00:33:39 67° 158° (SSE) 460 -3.9 -17.5°
Drops below altitude 10° 00:37:00 10° 75° (ENE) 1,505 -0.9 -17.6°
Sets 00:39:07 0° 73° (ENE) 2,370 0.2 -17.7°
